User: anonymous
Location: Mentone
(34.5413°N, 85.5351°W)
Time: 08:10:07
(UTC-05:00)
Language:

UOSAT-12 - Orbit

View from above orbital plane
View from above orbital plane
View from above satellite
View from above satellite

Ground track
Ground track

The orbit data is extracted from the following two-line orbital elements,

1 25693U 99021A   14207.14834317  .00000091  00000-0  31087-4 0  5451
2 25693 064.5571 142.3133 0048639 283.5015 168.6512 14.79989649823688
Epoch (UTC): 26 July 2014 03:33:36
Eccentricity: 0.0048639
inclination: 64.5571°
perigee height: 595 km
apogee height: 663 km
right ascension of ascending node: 142.3133°
argument of perigee: 283.5015°
revolutions per day: 14.79989649
mean anomaly at epoch: 168.6512°
orbit number at epoch: 82368

The dashed part of the orbit path shows where the satellite is in the earth's shadow,  

DLR